SCP
0 0 0 -0 0 -0 0 0 0 0 0 0 -0 -0 0 -0 -0 -0 -0 -0 -0 -0 -0 -0 -0 -0 -0 -0 -0 -0 -0 -0
0 0 0 0 0 0 0 0 0 0 0 0 -0 0 -0 -1 -0 -0 -0 -0 -0 -0 -1 -0 -0 -0 -0 -0 -0 -0 -0 -0
0 0 0 0 0 -0 0 0 -0 0 0 0 -0 0 -1 -1 -0 -0 -0 -0 -0 -0 -0 -0 -0 -0 -0 -0 -0 -0 -0 -0
0 0 0 0 0 -0 0 -0 -0 0 0 0 -0 -0 -0 -0 -0 -0 -0 -0 0 -0 -0 -0 -0 -0 -0 -0 -0 -0 -0 -0
0 0 0 0 -0 0 0 0 0 -0 1 0 0 1 0 0 -0 0 0 0 0 0 0 -0 -0 -0 -0 -0 -0 -0 -0 0
0 0 0 -0 0 0 0 0 0 0 0 1 0 0 0 1 1 0 0 0 0 0 0 0 0 0 0 0 0 0 0 0
0 0 0 0 -0 0 0 0 0 0 1 1 0 1 0 1 1 0 0 0 0 0 0 0 0 0 0 0 0 0 0 0
0 0 0 -0 0 0 0 0 0 0 0 0 0 1 -0 0 1 0 0 0 0 0 0 0 -0 0 0 0 0 0 0 0
0 0 0 0 0 0 0 0 0 -0 0 0 0 0 0 0 0 1 0 0 0 0 0 0 0 0 0 0 0 0 0 0
0 0 0 0 0 0 -0 0 0 0 -0 -0 -0 0 0 -0 0 0 1 0 0 0 0 -0 0 0 0 0 0 0 0 0
0 0 0 0 0 0 -0 0 0 0 0 -0 0 -0 0 0 0 0 1 1 0 0 -0 0 0 0 0 0 0 0 0 0
0 0 0 0 0 0 -0 0 0 0 0 0 0 0 0 0 0 0 0 0 0 1 -0 1 0 0 0 0 0 0 0 0
0 0 0 0 0 0 0 0 0 0 0 0 0 0 0 0 0 0 0 0 0 0 0 -0 1 1 1 0 0 0 0 0
0 0 0 0 0 0 0 0 0 0 0 0 0 0 0 0 0 0 0 0 0 -0 -0 -0 1 1 2 2 2 1 2 1
0 0 0 0 0 0 0 0 0 0 0 0 0 0 0 0 0 0 0 -0 0 0 0 -0 0 2 2 3 2 2 2 3
0 0 0 0 0 0 0 0 0 0 -0 0 0 0 0 0 0 0 0 0 -0 -0 -0 -0 -0 3 3 2 3 2 2 3
0 0 0 0 0 0 0 0 0 0 0 0 0 0 0 0 -0 0 0 0 -0 -0 -0 -0 5 6 5 4 3 2 2 1
0 0 0 0 0 0 0 0 0 0 0 0 0 0 0 0 0 0 0 0 0 0 0 2 5 6 5 3 2 3 2 2
0 0 0 0 0 0 0 0 0 0 0 0 0 0 0 0 0 -0 0 0 0 0 0 0 1 5 4 4 3 3 2 2
-0 0 0 0 0 0 0 0 0 0 0 0 0 0 0 0 0 -0 0 0 1 1 1 1 2 2 3 4 2 1 2 2
Wind_Speed_500mb
7 7 15 11 10 34 19 15 19 17 44 32 42 54 52 25 41 36 53 54 53 51 46 43 41 41 41 39 36 31 26 23
1 18 31 31 36 37 8 20 5 47 13 16 63 49 46 49 43 43 56 58 56 52 48 46 44 43 42 40 36 32 26 22
8 20 27 30 45 20 6 24 37 33 17 23 57 25 51 60 51 48 58 60 56 50 47 46 47 46 43 40 35 32 27 22
12 26 27 30 32 12 17 36 36 18 35 20 41 74 62 51 42 55 64 62 56 52 47 46 47 47 46 42 37 32 28 23
17 26 21 25 24 17 11 27 17 18 11 36 56 57 60 45 45 42 52 59 59 57 51 47 46 46 44 41 37 32 27 24
19 27 28 11 33 56 11 23 23 29 14 20 50 59 43 55 55 43 40 54 57 57 53 50 46 44 43 41 37 33 28 25
26 24 33 12 11 26 53 53 9 26 60 59 51 51 61 60 54 47 37 56 56 54 51 46 44 43 41 39 36 33 31 29
19 25 13 10 26 15 32 60 15 42 52 57 67 34 27 41 46 37 34 52 52 51 47 44 43 42 41 38 36 33 32 31
37 25 24 14 12 16 22 20 53 14 37 44 39 48 72 24 36 48 37 36 51 49 45 42 44 40 37 35 32 31 31 30
49 30 21 9 11 19 12 23 46 55 16 31 36 20 49 39 51 42 62 49 40 42 41 40 35 30 28 31 32 31 30 32
46 31 6 10 16 7 39 30 38 52 57 11 28 37 35 49 25 35 56 56 43 33 26 33 31 23 15 21 29 18 26 29
49 37 21 12 5 13 22 26 37 49 58 48 35 6 31 52 25 21 55 51 61 44 20 36 27 36 24 19 12 15 18 18
45 27 10 18 7 13 49 41 44 49 57 55 34 36 28 37 45 54 15 13 70 11 22 37 49 36 37 24 20 27 30 28
39 18 9 18 16 12 39 23 31 42 48 49 44 52 35 25 23 18 31 20 16 27 34 43 50 55 51 46 41 33 37 38
17 11 2 15 8 20 48 41 39 40 43 56 56 45 41 8 14 23 13 23 42 45 36 32 64 43 55 54 46 46 50 42
20 8 13 14 8 11 38 36 39 39 37 40 50 32 25 33 36 25 12 26 30 29 28 43 68 39 33 34 43 44 49 44
10 20 13 15 12 25 38 39 44 36 36 45 41 33 11 18 18 24 15 22 19 18 15 35 56 43 40 38 33 34 34 46
17 30 16 33 29 24 28 21 39 40 42 55 33 46 12 10 17 20 22 8 16 24 25 21 34 38 39 35 31 30 31 37
26 27 22 14 28 21 16 33 40 45 56 45 31 39 15 8 17 25 15 13 8 12 24 35 39 34 41 39 33 36 43 52
39 21 14 27 10 16 24 19 20 42 49 43 31 9 21 6 6 11 11 7 11 17 21 17 22 42 31 37 47 47 48 44
Wind_Direction_500mb
161 195 240 255 325 315 349 91 163 104 104 124 142 146 164 223 170 178 163 160 162 163 164 162 160 158 158 158 156 154 146 138
104 258 258 244 268 280 32 294 141 140 101 134 147 158 180 187 180 178 164 163 166 163 163 162 161 160 160 162 160 159 155 150
234 255 266 272 277 292 11 280 316 129 178 172 160 176 172 179 184 185 165 166 164 162 164 164 162 162 162 164 166 164 163 162
236 259 270 272 272 15 319 287 307 96 134 150 161 160 170 178 184 182 164 166 164 165 170 167 165 165 165 167 171 171 171 171
256 266 277 266 313 165 275 285 313 108 102 131 140 151 165 170 172 162 168 168 169 168 171 170 169 168 169 168 171 175 178 181
251 259 271 312 333 14 285 270 330 18 153 115 130 148 155 168 172 176 177 178 174 171 172 171 171 172 173 174 175 178 182 189
246 252 264 335 334 25 308 344 334 62 126 134 135 146 151 170 173 181 197 188 179 176 175 173 174 175 177 179 181 184 189 193
254 263 283 176 72 27 344 323 346 85 112 143 143 128 162 154 178 200 182 189 183 180 176 177 181 183 182 184 187 192 196 200
258 343 12 264 72 11 353 343 357 86 127 150 180 175 172 197 225 213 209 197 186 183 180 182 188 187 189 191 196 200 205 206
260 291 334 5 74 352 354 313 331 346 136 138 161 194 220 252 306 266 205 201 180 171 179 184 174 185 199 205 204 209 212 212
252 256 156 5 355 16 305 321 330 348 356 127 170 172 224 224 300 302 181 180 182 167 160 176 198 210 225 217 214 205 229 225
254 225 199 154 260 10 287 317 326 334 330 341 355 209 185 189 202 32 136 162 167 176 153 184 210 219 227 243 227 229 242 245
259 230 181 142 267 245 274 291 297 308 317 319 323 344 243 194 204 232 332 26 139 325 212 203 210 215 222 223 239 249 257 268
244 154 159 150 242 230 266 296 304 293 293 302 316 332 309 209 254 225 188 221 254 183 218 224 221 215 212 210 210 231 237 244
236 223 186 143 157 262 262 287 275 280 270 275 289 318 354 281 199 189 205 177 219 215 172 227 234 225 231 230 224 217 225 234
203 229 216 182 184 254 262 284 287 262 250 264 267 305 10 60 92 103 197 211 195 160 173 207 223 241 241 234 231 230 232 229
189 231 221 154 188 233 265 269 260 252 245 248 278 266 11 343 37 77 90 99 154 202 199 201 223 232 241 251 259 257 251 238
212 227 207 199 221 234 228 240 240 232 241 244 265 249 247 18 358 16 37 5 208 217 223 197 217 235 250 254 268 272 269 254
229 207 182 172 208 212 237 236 245 251 236 235 253 251 221 152 346 352 25 37 306 265 253 239 233 223 228 238 246 243 250 255
243 247 178 195 238 214 209 211 230 251 235 237 227 253 175 152 241 357 354 308 299 296 262 282 235 227 227 236 246 256 263 262
Wind_Speed_850mb
7 7 15 11 10 34 19 15 19 17 44 32 42 54 52 25 41 36 53 54 53 51 46 43 41 41 41 39 36 31 26 23
1 18 31 31 36 37 8 20 5 47 13 16 63 49 46 49 43 43 56 58 56 52 48 46 44 43 42 40 36 32 26 22
8 20 27 30 45 20 6 24 37 33 17 23 57 25 51 60 51 48 58 60 56 50 47 46 47 46 43 40 35 32 27 22
12 26 27 30 32 12 17 36 36 18 35 20 41 74 62 51 42 55 64 62 56 52 47 46 47 47 46 42 37 32 28 23
17 26 21 25 24 17 11 27 17 18 11 36 56 57 60 45 45 42 52 59 59 57 51 47 46 46 44 41 37 32 27 24
19 27 28 11 33 56 11 23 23 29 14 20 50 59 43 55 55 43 40 54 57 57 53 50 46 44 43 41 37 33 28 25
26 24 33 12 11 26 53 53 9 26 60 59 51 51 61 60 54 47 37 56 56 54 51 46 44 43 41 39 36 33 31 29
19 25 13 10 26 15 32 60 15 42 52 57 67 34 27 41 46 37 34 52 52 51 47 44 43 42 41 38 36 33 32 31
37 25 24 14 12 16 22 20 53 14 37 44 39 48 72 24 36 48 37 36 51 49 45 42 44 40 37 35 32 31 31 30
49 30 21 9 11 19 12 23 46 55 16 31 36 20 49 39 51 42 62 49 40 42 41 40 35 30 28 31 32 31 30 32
46 31 6 10 16 7 39 30 38 52 57 11 28 37 35 49 25 35 56 56 43 33 26 33 31 23 15 21 29 18 26 29
49 37 21 12 5 13 22 26 37 49 58 48 35 6 31 52 25 21 55 51 61 44 20 36 27 36 24 19 12 15 18 18
45 27 10 18 7 13 49 41 44 49 57 55 34 36 28 37 45 54 15 13 70 11 22 37 49 36 37 24 20 27 30 28
39 18 9 18 16 12 39 23 31 42 48 49 44 52 35 25 23 18 31 20 16 27 34 43 50 55 51 46 41 33 37 38
17 11 2 15 8 20 48 41 39 40 43 56 56 45 41 8 14 23 13 23 42 45 36 32 64 43 55 54 46 46 50 42
20 8 13 14 8 11 38 36 39 39 37 40 50 32 25 33 36 25 12 26 30 29 28 43 68 39 33 34 43 44 49 44
10 20 13 15 12 25 38 39 44 36 36 45 41 33 11 18 18 24 15 22 19 18 15 35 56 43 40 38 33 34 34 46
17 30 16 33 29 24 28 21 39 40 42 55 33 46 12 10 17 20 22 8 16 24 25 21 34 38 39 35 31 30 31 37
26 27 22 14 28 21 16 33 40 45 56 45 31 39 15 8 17 25 15 13 8 12 24 35 39 34 41 39 33 36 43 52
39 21 14 27 10 16 24 19 20 42 49 43 31 9 21 6 6 11 11 7 11 17 21 17 22 42 31 37 47 47 48 44
Wind_Direction_850mb
161 195 240 255 325 315 349 91 163 104 104 124 142 146 164 223 170 178 163 160 162 163 164 162 160 158 158 158 156 154 146 138
104 258 258 244 268 280 32 294 141 140 101 134 147 158 180 187 180 178 164 163 166 163 163 162 161 160 160 162 160 159 155 150
234 255 266 272 277 292 11 280 316 129 178 172 160 176 172 179 184 185 165 166 164 162 164 164 162 162 162 164 166 164 163 162
236 259 270 272 272 15 319 287 307 96 134 150 161 160 170 178 184 182 164 166 164 165 170 167 165 165 165 167 171 171 171 171
256 266 277 266 313 165 275 285 313 108 102 131 140 151 165 170 172 162 168 168 169 168 171 170 169 168 169 168 171 175 178 181
251 259 271 312 333 14 285 270 330 18 153 115 130 148 155 168 172 176 177 178 174 171 172 171 171 172 173 174 175 178 182 189
246 252 264 335 334 25 308 344 334 62 126 134 135 146 151 170 173 181 197 188 179 176 175 173 174 175 177 179 181 184 189 193
254 263 283 176 72 27 344 323 346 85 112 143 143 128 162 154 178 200 182 189 183 180 176 177 181 183 182 184 187 192 196 200
258 343 12 264 72 11 353 343 357 86 127 150 180 175 172 197 225 213 209 197 186 183 180 182 188 187 189 191 196 200 205 206
260 291 334 5 74 352 354 313 331 346 136 138 161 194 220 252 306 266 205 201 180 171 179 184 174 185 199 205 204 209 212 212
252 256 156 5 355 16 305 321 330 348 356 127 170 172 224 224 300 302 181 180 182 167 160 176 198 210 225 217 214 205 229 225
254 225 199 154 260 10 287 317 326 334 330 341 355 209 185 189 202 32 136 162 167 176 153 184 210 219 227 243 227 229 242 245
259 230 181 142 267 245 274 291 297 308 317 319 323 344 243 194 204 232 332 26 139 325 212 203 210 215 222 223 239 249 257 268
244 154 159 150 242 230 266 296 304 293 293 302 316 332 309 209 254 225 188 221 254 183 218 224 221 215 212 210 210 231 237 244
236 223 186 143 157 262 262 287 275 280 270 275 289 318 354 281 199 189 205 177 219 215 172 227 234 225 231 230 224 217 225 234
203 229 216 182 184 254 262 284 287 262 250 264 267 305 10 60 92 103 197 211 195 160 173 207 223 241 241 234 231 230 232 229
189 231 221 154 188 233 265 269 260 252 245 248 278 266 11 343 37 77 90 99 154 202 199 201 223 232 241 251 259 257 251 238
212 227 207 199 221 234 228 240 240 232 241 244 265 249 247 18 358 16 37 5 208 217 223 197 217 235 250 254 268 272 269 254
229 207 182 172 208 212 237 236 245 251 236 235 253 251 221 152 346 352 25 37 306 265 253 239 233 223 228 238 246 243 250 255
243 247 178 195 238 214 209 211 230 251 235 237 227 253 175 152 241 357 354 308 299 296 262 282 235 227 227 236 246 256 263 262